sat.trackr.live / text

‹ back to catalog

QZS-3 (QZSS/PRN 199)

NORAD 42917 · 2017-048A

PAYLOAD ACTIVE UNKNOWN

§ Identity

Operator
Country
JPN
Launch date
2017-08-19
Launch site
TANSC
Launch vehicle
Mass (kg)
RCS (m²)

Purposes: comms, nav

External: N2YO · Heavens-Above · Gunter

§ Orbital elements

Epoch: 2026-09-03T23:30:28.595232Z

Period
1,436.17 min
Inclination
0.0529°
Eccentricity
0.0002123
Mean motion
1.00266816 rev/d
Perigee alt
35,779.0 km
Apogee alt
35,796.9 km
Semi-major
42,166.1 km
B*
0.0000e+0
RAAN
184.0654°
Arg perigee
345.5200°
Mean anomaly
293.1207°
Rev number
3,304

§ Raw data

QZS-3 (QZSS/PRN 199)1 42917U 17048A   26246.97949763 -.00000353  00000+0  00000+0 0  99972 42917   0.0529 184.0654 0002123 345.5200 293.1207  1.00266816 33040

JSON: /api/v1/satellites/42917 · /tle

For live sub-satellite position, see the globe view (requires WebGL).

§ Visibility from observer

Set your observer location to see the next 7 days of passes ≥ 10°. The values pass through the URL so the page stays shareable.

No JS? Fill the form by hand. The geolocation button needs JavaScript.